Weather History for Ciudad Obregon, Mexico

Change the Weather History Date:

Monday, March 11, 2013

  Actual Average Record
Temperature  
Mean Temperature 62 °F -  
Max Temperature 83 °F 78 °F 86 °F (2012)
Min Temperature 41 °F 54 °F 41 °F (2013)
Degree Days  
Heating Degree Days 3    
Growing Degree Days 12 (Base 50)    
Moisture  
Dew Point 39 °F    
Average Humidity 40    
Maximum Humidity 81    
Minimum Humidity 14    
Precipitation  
Precipitation 0.00 in - - ()
Sea Level Pressure  
Sea Level Pressure 29.91 in    
Wind  
Wind Speed 6 mph ()    
Max Wind Speed 16 mph    
Max Gust Speed -    
Visibility 10.3 miles    
Events      
Averages and records for this station are not official NWS values.
T = Trace of Precipitation, MM = Missing Value Source: Averaged Metar Reports

Daily Weather History Graph

Daily Weather History Graph

Search for Another Location

Airport:

Trip Planner

Search our weather history database for the weather conditions in past years. The results will help you decide how hot, cold, wet, or windy it might be!

Date:

Astronomy

Mar. 11, 2013 Rise Set
Actual Time 6:32 AM MST 6:26 PM MST
Civil Twilight 6:09 AM MST 6:49 PM MST
Nautical Twilight 5:42 AM MST 7:16 PM MST
Astronomical Twilight 5:15 AM MST 7:43 PM MST
Moon 6:11 AM MST (3/11) 6:35 PM MST (3/11)
Length of Visible Light 12h 39m
Length of Day
11h 53m
Waning Crescent, 0% of the Moon is Illuminated
Mar 11
Waning Crescent
Mar 11
New
Mar 19
First Quarter
Mar 27
Full
Apr 2
Last Quarter

Hourly Weather History & Observations

Time (MST) Temp. Windchill Dew Point Humidity Pressure Visibility Wind Dir Wind Speed Gust Speed Precip Events Conditions
4:43 AM 44.6 °F 43.1 °F 39.2 °F 81% 29.90 in 10.0 mi NNW 3.5 mph - N/A   Clear
5:41 AM 42.8 °F 39.3 °F 35.6 °F 76% 29.91 in 10.0 mi ESE 5.8 mph - N/A   Clear
6:43 AM 42.8 °F 40.1 °F 37.4 °F 81% 29.94 in 10.0 mi SE 4.6 mph - N/A   Clear
7:42 AM 51.8 °F - 35.6 °F 54% 29.96 in 10.0 mi Calm Calm - N/A   Clear
7:50 AM 50 °F - 46 °F 81% 29.99 in 12 mi NE 4.5 mph - -  
8:42 AM 66.2 °F - 32.0 °F 28% 29.98 in 10.0 mi Calm Calm - N/A   Clear
9:40 AM 71.6 °F - 35.6 °F 27% 29.97 in 10.0 mi NNW 6.9 mph - N/A   Clear
10:40 AM 77.0 °F - 35.6 °F 22% 29.96 in 10.0 mi West 9.2 mph - N/A   Clear
10:50 AM 77 °F - 41 °F 17% 29.99 in 12 mi NNE 2.2 mph - -  
11:40 AM 80.6 °F - 28.4 °F 15% 29.95 in 10.0 mi West 8.1 mph - N/A   Clear
12:40 PM 82.4 °F - 28.4 °F 14% 29.91 in 10.0 mi West 12.7 mph - N/A   Clear
1:41 PM 82.4 °F - 28.4 °F 14% 29.87 in 10.0 mi WSW 10.4 mph - N/A   Clear
1:50 PM 83 °F - 55 °F 27% 29.91 in 12 mi WSW 15.7 mph - -  
2:42 PM 80.6 °F - 41.0 °F 24% 29.85 in 10.0 mi West 15.0 mph - N/A   Clear
3:43 PM 80.6 °F - 42.8 °F 26% 29.82 in 10.0 mi West 13.8 mph - N/A   Clear
4:42 PM 77.0 °F - 44.6 °F 32% 29.82 in 10.0 mi WSW 13.8 mph - N/A   Clear
5:44 PM 71.6 °F - 46.4 °F 41% 29.83 in 10.0 mi West 10.4 mph - N/A   Clear
6:41 PM 66.2 °F - 46.4 °F 49% 29.84 in 10.0 mi WNW 4.6 mph - N/A   Clear
7:44 PM 62.6 °F - 42.8 °F 48% 29.85 in 10.0 mi Calm Calm - N/A   Clear